| time (UTC) | temp C | wind direction | speed KPH | gust KPH | rain 1hr cm | rain 24hr cm | rain mn cm | humidity % | barometer mb |
| 20260510061304 | 11 | 172 | 0.0 | 0.0 | 0.05 | 1.57 | 0.28 | 97 | 1009.6 |
| 20260510060804 | 11 | 172 | 0.0 | 0.0 | 0.05 | 1.57 | 0.28 | 97 | 1009.6 |
| 20260510060304 | 11 | 172 | 0.0 | 1.6 | 0.08 | 1.57 | 0.28 | 97 | 1009.7 |
| 20260510055804 | 11 | 193 | 0.0 | 0.0 | 0.10 | 1.57 | 0.28 | 97 | 1009.8 |
| 20260510055307 | 11 | 193 | 0.0 | 0.0 | 0.13 | 1.57 | 0.28 | 97 | 1009.6 |
| 20260510054804 | 11 | 193 | 0.0 | 1.6 | 0.18 | 1.57 | 0.28 | 97 | 1009.8 |
| 20260510054304 | 11 | 181 | 0.0 | 0.0 | 0.20 | 1.57 | 0.28 | 97 | 1009.9 |
| 20260510053803 | 11 | 191 | 0.0 | 1.6 | 0.20 | 1.57 | 0.28 | 97 | 1009.9 |
| 20260510053306 | 11 | 274 | 0.0 | 0.0 | 0.20 | 1.57 | 0.28 | 97 | 1010.2 |
| 20260510052306 | 11 | 274 | 1.6 | 4.8 | 0.25 | 1.57 | 0.28 | 97 | 1010.3 |
| 20260510051804 | 11 | 204 | 1.6 | 8.0 | 0.28 | 1.57 | 0.28 | 97 | 1009.7 |
| 20260510051304 | 11 | 248 | 0.0 | 1.6 | 0.23 | 1.52 | 0.23 | 97 | 1010.5 |
| 20260510050804 | 11 | 227 | 1.6 | 4.8 | 0.23 | 1.52 | 0.23 | 97 | 1010.7 |
| 20260510050304 | 11 | 321 | 0.0 | 0.0 | 0.20 | 1.50 | 0.20 | 97 | 1010.7 |
| 20260510045804 | 11 | 321 | 0.0 | 0.0 | 0.18 | 1.47 | 0.18 | 97 | 1010.7 |
| 20260510044804 | 11 | 321 | 0.0 | 0.0 | 0.10 | 1.40 | 0.10 | 97 | 1010.7 |
| 20260510044305 | 11 | 321 | 0.0 | 0.0 | 0.08 | 1.37 | 0.08 | 97 | 1010.6 |
| 20260510043804 | 11 | 321 | 0.0 | 0.0 | 0.08 | 1.37 | 0.08 | 97 | 1010.4 |
| 20260510043305 | 11 | 321 | 0.0 | 0.0 | 0.10 | 1.37 | 0.08 | 97 | 1010.3 |
| 20260510042804 | 11 | 321 | 0.0 | 0.0 | 0.13 | 1.35 | 0.05 | 97 | 1010.4 |
| 20260510042306 | 11 | 321 | 0.0 | 1.6 | 0.10 | 1.32 | 0.03 | 97 | 1010.5 |
| 20260510041304 | 11 | 328 | 1.6 | 4.8 | 0.08 | 1.30 | 0.00 | 97 | 1010.0 |
| 20260510040805 | 11 | 254 | 0.0 | 1.6 | 0.08 | 1.30 | 0.00 | 97 | 1009.5 |
| 20260510040304 | 11 | 194 | 1.6 | 3.2 | 0.08 | 1.30 | 0.00 | 96 | 1009.3 |
| 20260510035804 | 11 | 197 | 1.6 | 4.8 | 0.08 | 1.30 | 1.30 | 96 | 1009.1 |
| 20260510034804 | 11 | 141 | 1.6 | 4.8 | 0.08 | 1.32 | 1.30 | 96 | 1009.1 |
| 20260510034304 | 11 | 196 | 1.6 | 4.8 | 0.08 | 1.32 | 1.30 | 96 | 1009.2 |
| 20260510033804 | 11 | 196 | 1.6 | 4.8 | 0.08 | 1.32 | 1.30 | 96 | 1009.3 |
| 20260510033305 | 11 | 199 | 0.0 | 3.2 | 0.08 | 1.30 | 1.27 | 96 | 1009.3 |
| 20260510032805 | 11 | 193 | 0.0 | 1.6 | 0.08 | 1.24 | 1.22 | 96 | 1009.5 |
| 20260510032306 | 11 | 221 | 0.0 | 1.6 | 0.15 | 1.27 | 1.22 | 96 | 1009.6 |
| 20260510031304 | 11 | 214 | 0.0 | 1.6 | 0.28 | 1.27 | 1.22 | 96 | 1009.6 |
| 20260510030805 | 11 | 219 | 0.0 | 1.6 | 0.30 | 1.27 | 1.22 | 96 | 1009.6 |
| 20260510030305 | 11 | 208 | 0.0 | 1.6 | 0.33 | 1.27 | 1.22 | 96 | 1009.6 |
| 20260510025804 | 11 | 204 | 0.0 | 1.6 | 0.38 | 1.27 | 1.22 | 95 | 1009.6 |
| 20260510024804 | 11 | 174 | 1.6 | 4.8 | 0.46 | 1.30 | 1.22 | 95 | 1009.5 |
| 20260510024304 | 11 | 203 | 0.0 | 4.8 | 0.48 | 1.30 | 1.22 | 95 | 1009.7 |
| 20260510023804 | 11 | 210 | 1.6 | 4.8 | 0.53 | 1.30 | 1.22 | 95 | 1009.7 |
| 20260510022805 | 11 | 174 | 1.6 | 4.8 | 0.84 | 1.24 | 1.14 | 95 | 1010.4 |
| 20260510021805 | 11 | 195 | 0.0 | 1.6 | 0.69 | 1.12 | 0.99 | 94 | 1010.6 |
| 20260510021304 | 11 | 96 | 0.0 | 0.0 | 0.64 | 1.07 | 0.94 | 94 | 1010.5 |
| 20260510020806 | 11 | 96 | 0.0 | 1.6 | 0.61 | 1.04 | 0.91 | 93 | 1010.6 |
| 20260510020305 | 12 | 96 | 0.0 | 1.6 | 0.58 | 1.04 | 0.89 | 93 | 1010.4 |
| 20260510015805 | 12 | 335 | 1.6 | 4.8 | 0.53 | 0.99 | 0.84 | 93 | 1010.7 |
| 20260510014805 | 12 | 322 | 0.0 | 3.2 | 0.46 | 0.91 | 0.76 | 92 | 1010.6 |
| 20260510014305 | 12 | 11 | 1.6 | 8.0 | 0.43 | 0.89 | 0.74 | 91 | 1010.5 |
| 20260510013805 | 12 | 356 | 3.2 | 9.7 | 0.38 | 0.84 | 0.69 | 89 | 1010.5 |
| 20260510013304 | 13 | 291 | 6.4 | 22.5 | 0.20 | 0.66 | 0.51 | 86 | 1010.4 |
| 20260510012805 | 14 | 355 | 8.0 | 16.1 | 0.00 | 0.46 | 0.30 | 81 | 1009.7 |
| 20260510012307 | 15 | 338 | 9.7 | 20.9 | 0.00 | 0.48 | 0.30 | 76 | 1009.6 |
| 20260510011805 | 16 | 323 | 8.0 | 20.9 | 0.00 | 0.48 | 0.30 | 72 | 1009.0 |
| 20260510011305 | 16 | 246 | 1.6 | 9.7 | 0.00 | 0.48 | 0.30 | 70 | 1007.6 |
| 20260510010805 | 16 | 243 | 1.6 | 8.0 | 0.00 | 0.48 | 0.30 | 70 | 1007.3 |
| 20260510010304 | 16 | 233 | 3.2 | 4.8 | 0.00 | 0.48 | 0.30 | 70 | 1007.4 |
| 20260510005306 | 16 | 221 | 3.2 | 11.3 | 0.00 | 0.48 | 0.30 | 70 | 1007.5 |
| 20260510004805 | 16 | 209 | 1.6 | 4.8 | 0.00 | 0.48 | 0.30 | 70 | 1007.3 |
| 20260510004304 | 16 | 215 | 0.0 | 4.8 | 0.00 | 0.48 | 0.30 | 70 | 1007.3 |
| 20260510003305 | 16 | 216 | 1.6 | 8.0 | 0.00 | 0.48 | 0.30 | 69 | 1007.2 |
| 20260510002805 | 17 | 225 | 3.2 | 9.7 | 0.00 | 0.48 | 0.30 | 68 | 1007.2 |
| 20260510002307 | 17 | 198 | 0.0 | 4.8 | 0.00 | 0.48 | 0.30 | 67 | 1007.1 |
| 20260510001805 | 17 | 220 | 3.2 | 11.3 | 0.00 | 0.48 | 0.30 | 66 | 1007.1 |
| 20260510001305 | 17 | 243 | 6.4 | 16.1 | 0.00 | 0.48 | 0.30 | 66 | 1007.0 |
| 20260510000805 | 17 | 241 | 3.2 | 11.3 | 0.00 | 0.48 | 0.30 | 66 | 1006.9 |
| 20260509235805 | 17 | 254 | 4.8 | 16.1 | 0.00 | 0.48 | 0.30 | 66 | 1006.9 |
| 20260509235307 | 17 | 232 | 8.0 | 19.3 | 0.00 | 0.48 | 0.30 | 65 | 1006.9 |
| 20260509234805 | 17 | 209 | 1.6 | 9.7 | 0.00 | 0.48 | 0.30 | 66 | 1006.8 |
| 20260509233804 | 18 | 238 | 3.2 | 11.3 | 0.00 | 0.48 | 0.30 | 65 | 1006.6 |
| 20260509233304 | 18 | 169 | 3.2 | 14.5 | 0.00 | 0.48 | 0.30 | 63 | 1006.5 |
| 20260509232805 | 18 | 223 | 3.2 | 16.1 | 0.00 | 0.48 | 0.30 | 63 | 1006.7 |
| 20260509232306 | 18 | 252 | 8.0 | 16.1 | 0.00 | 0.48 | 0.30 | 62 | 1006.6 |
| 20260509231805 | 18 | 226 | 4.8 | 20.9 | 0.00 | 0.48 | 0.30 | 62 | 1006.6 |
| 20260509231304 | 18 | 266 | 3.2 | 19.3 | 0.00 | 0.48 | 0.30 | 62 | 1006.7 |
| 20260509230804 | 19 | 219 | 8.0 | 24.1 | 0.00 | 0.48 | 0.30 | 62 | 1006.7 |
| 20260509230304 | 19 | 269 | 8.0 | 16.1 | 0.00 | 0.48 | 0.30 | 61 | 1006.7 |
| 20260509225805 | 19 | 269 | 4.8 | 16.1 | 0.00 | 0.48 | 0.30 | 62 | 1006.6 |
| 20260509225306 | 19 | 235 | 9.7 | 19.3 | 0.00 | 0.48 | 0.30 | 61 | 1006.6 |
| 20260509224304 | 19 | 268 | 6.4 | 19.3 | 0.00 | 0.48 | 0.30 | 61 | 1006.5 |
| 20260509223805 | 19 | 242 | 6.4 | 16.1 | 0.00 | 0.48 | 0.30 | 61 | 1006.5 |
| 20260509223305 | 19 | 218 | 8.0 | 25.7 | 0.00 | 0.48 | 0.30 | 61 | 1006.3 |
| 20260509221805 | 19 | 236 | 9.7 | 20.9 | 0.00 | 0.48 | 0.30 | 61 | 1006.4 |
| 20260509221304 | 20 | 240 | 8.0 | 19.3 | 0.00 | 0.51 | 0.30 | 61 | 1006.4 |
| 20260509220804 | 20 | 229 | 4.8 | 11.3 | 0.00 | 0.51 | 0.30 | 62 | 1006.5 |
| 20260509220305 | 19 | 250 | 4.8 | 19.3 | 0.00 | 0.51 | 0.30 | 64 | 1006.5 |
| 20260509215804 | 19 | 215 | 6.4 | 16.1 | 0.00 | 0.51 | 0.30 | 61 | 1006.5 |
| 20260509215306 | 19 | 229 | 4.8 | 20.9 | 0.00 | 0.51 | 0.30 | 64 | 1006.5 |
| 20260509214804 | 19 | 215 | 8.0 | 20.9 | 0.00 | 0.51 | 0.30 | 64 | 1006.5 |
| 20260509214306 | 19 | 214 | 4.8 | 14.5 | 0.00 | 0.53 | 0.30 | 64 | 1006.5 |
| 20260509213808 | 19 | 234 | 9.7 | 16.1 | 0.00 | 0.53 | 0.30 | 65 | 1006.7 |
| 20260509212805 | 18 | 244 | 6.4 | 14.5 | 0.00 | 0.56 | 0.30 | 64 | 1006.7 |
| 20260509212306 | 18 | 227 | 4.8 | 14.5 | 0.00 | 0.58 | 0.30 | 63 | 1006.7 |
| 20260509211304 | 18 | 217 | 4.8 | 16.1 | 0.00 | 0.64 | 0.30 | 65 | 1006.8 |
| 20260509210304 | 18 | 245 | 6.4 | 16.1 | 0.00 | 0.64 | 0.30 | 66 | 1007.1 |
| 20260509205804 | 18 | 228 | 3.2 | 16.1 | 0.00 | 0.64 | 0.30 | 67 | 1007.1 |
| 20260509204804 | 18 | 238 | 6.4 | 14.5 | 0.00 | 0.64 | 0.30 | 66 | 1007.3 |
| 20260509204304 | 18 | 269 | 8.0 | 19.3 | 0.00 | 0.66 | 0.30 | 66 | 1007.3 |
| 20260509203806 | 18 | 217 | 4.8 | 12.9 | 0.00 | 0.66 | 0.30 | 69 | 1007.2 |
| 20260509203305 | 18 | 241 | 4.8 | 19.3 | 0.00 | 0.66 | 0.30 | 67 | 1007.2 |
| 20260509202804 | 18 | 213 | 4.8 | 12.9 | 0.00 | 0.66 | 0.30 | 69 | 1007.3 |
| 20260509202306 | 18 | 253 | 11.3 | 22.5 | 0.00 | 0.66 | 0.30 | 67 | 1007.4 |
| 20260509201804 | 18 | 230 | 3.2 | 20.9 | 0.00 | 0.69 | 0.30 | 68 | 1007.5 |
| 20260509201304 | 18 | 217 | 8.0 | 20.9 | 0.00 | 0.69 | 0.30 | 68 | 1007.4 |
| 20260509200804 | 18 | 263 | 3.2 | 14.5 | 0.00 | 0.71 | 0.30 | 69 | 1007.7 |
| 20260509195306 | 17 | 269 | 6.4 | 16.1 | 0.00 | 0.71 | 0.30 | 71 | 1008.1 |
| 20260509194805 | 18 | 206 | 9.7 | 19.3 | 0.00 | 0.71 | 0.30 | 70 | 1008.1 |
| 20260509194304 | 17 | 236 | 6.4 | 16.1 | 0.00 | 0.71 | 0.30 | 70 | 1008.1 |
| 20260509193805 | 17 | 239 | 8.0 | 16.1 | 0.00 | 0.71 | 0.30 | 72 | 1008.0 |
| 20260509193304 | 17 | 237 | 6.4 | 19.3 | 0.00 | 0.71 | 0.30 | 71 | 1008.0 |
| 20260509192806 | 18 | 265 | 6.4 | 19.3 | 0.00 | 0.71 | 0.30 | 72 | 1008.1 |
| 20260509192306 | 17 | 238 | 11.3 | 22.5 | 0.00 | 0.71 | 0.30 | 71 | 1008.1 |
| 20260509191804 | 18 | 260 | 9.7 | 19.3 | 0.00 | 0.71 | 0.30 | 70 | 1008.3 |
| 20260509191304 | 17 | 261 | 9.7 | 19.3 | 0.00 | 0.71 | 0.30 | 72 | 1008.3 |
| 20260509190805 | 17 | 228 | 8.0 | 16.1 | 0.00 | 0.71 | 0.30 | 71 | 1008.3 |
| 20260509190304 | 17 | 229 | 9.7 | 20.9 | 0.00 | 0.71 | 0.30 | 73 | 1008.3 |
| 20260509185804 | 17 | 213 | 9.7 | 19.3 | 0.00 | 0.71 | 0.30 | 74 | 1008.3 |
| 20260509185306 | 17 | 222 | 9.7 | 24.1 | 0.00 | 0.71 | 0.30 | 74 | 1008.3 |
| 20260509184804 | 17 | 228 | 9.7 | 19.3 | 0.00 | 0.71 | 0.30 | 75 | 1008.3 |
| 20260509184305 | 17 | 206 | 8.0 | 19.3 | 0.00 | 0.71 | 0.30 | 76 | 1008.4 |
| 20260509183804 | 17 | 249 | 11.3 | 22.5 | 0.00 | 0.71 | 0.30 | 74 | 1008.5 |
| 20260509183304 | 17 | 249 | 8.0 | 24.1 | 0.00 | 0.71 | 0.30 | 76 | 1008.4 |
| 20260509182307 | 16 | 230 | 4.8 | 14.5 | 0.00 | 0.71 | 0.30 | 78 | 1008.5 |
| 20260509181304 | 16 | 271 | 9.7 | 27.4 | 0.00 | 0.71 | 0.30 | 80 | 1008.7 |
| 20260509180804 | 16 | 253 | 4.8 | 14.5 | 0.00 | 0.71 | 0.30 | 82 | 1008.7 |
| 20260509180305 | 16 | 213 | 1.6 | 11.3 | 0.00 | 0.71 | 0.30 | 83 | 1008.8 |
| 20260509175306 | 15 | 248 | 1.6 | 9.7 | 0.00 | 0.71 | 0.30 | 85 | 1008.8 |
| 20260509174804 | 15 | 273 | 1.6 | 9.7 | 0.00 | 0.71 | 0.30 | 85 | 1008.7 |
| 20260509173805 | 15 | 237 | 3.2 | 9.7 | 0.00 | 0.71 | 0.30 | 85 | 1008.8 |
| 20260509172804 | 15 | 191 | 3.2 | 9.7 | 0.00 | 0.71 | 0.30 | 88 | 1008.8 |
| 20260509172306 | 14 | 234 | 1.6 | 9.7 | 0.00 | 0.71 | 0.30 | 90 | 1008.9 |
| 20260509171304 | 13 | 293 | 1.6 | 12.9 | 0.00 | 0.71 | 0.30 | 92 | 1009.0 |
| 20260509170806 | 13 | 283 | 1.6 | 8.0 | 0.00 | 0.71 | 0.30 | 91 | 1009.0 |
| 20260509170305 | 13 | 282 | 0.0 | 1.6 | 0.00 | 0.71 | 0.30 | 91 | 1008.9 |
| 20260509165804 | 13 | 266 | 1.6 | 4.8 | 0.00 | 0.71 | 0.30 | 91 | 1009.0 |
| 20260509165306 | 13 | 234 | 3.2 | 8.0 | 0.00 | 0.71 | 0.30 | 92 | 1009.0 |
| 20260509164804 | 13 | 233 | 3.2 | 4.8 | 0.00 | 0.71 | 0.30 | 92 | 1008.9 |
| 20260509164304 | 13 | 240 | 1.6 | 4.8 | 0.00 | 0.71 | 0.30 | 92 | 1009.0 |
| 20260509163804 | 13 | 209 | 1.6 | 4.8 | 0.00 | 0.71 | 0.30 | 93 | 1009.0 |
| 20260509163304 | 13 | 247 | 3.2 | 12.9 | 0.00 | 0.71 | 0.30 | 94 | 1009.0 |
| 20260509162804 | 13 | 228 | 3.2 | 4.8 | 0.00 | 0.71 | 0.30 | 95 | 1009.0 |
| 20260509162307 | 12 | 222 | 1.6 | 4.8 | 0.00 | 0.71 | 0.30 | 95 | 1009.1 |
| 20260509161805 | 12 | 224 | 3.2 | 11.3 | 0.00 | 0.71 | 0.30 | 95 | 1009.1 |
| 20260509160804 | 12 | 250 | 4.8 | 12.9 | 0.03 | 0.71 | 0.30 | 96 | 1009.0 |
| 20260509160304 | 12 | 231 | 3.2 | 9.7 | 0.03 | 0.71 | 0.30 | 96 | 1008.9 |
| 20260509155804 | 12 | 325 | 1.6 | 4.8 | 0.03 | 0.71 | 0.30 | 97 | 1009.0 |
| 20260509153805 | 11 | 238 | 0.0 | 4.8 | 0.10 | 0.71 | 0.30 | 97 | 1008.9 |
| 20260509153304 | 11 | 208 | 1.6 | 8.0 | 0.10 | 0.71 | 0.30 | 97 | 1008.9 |
| 20260509152806 | 11 | 216 | 1.6 | 12.9 | 0.10 | 0.71 | 0.30 | 97 | 1008.9 |
| 20260509152306 | 11 | 207 | 1.6 | 4.8 | 0.10 | 0.71 | 0.30 | 97 | 1008.9 |
| 20260509151805 | 11 | 231 | 0.0 | 11.3 | 0.10 | 0.71 | 0.30 | 97 | 1008.9 |
| 20260509151305 | 11 | 238 | 3.2 | 4.8 | 0.10 | 0.71 | 0.30 | 97 | 1008.9 |
| 20260509150804 | 11 | 203 | 3.2 | 8.0 | 0.08 | 0.69 | 0.28 | 97 | 1008.9 |
| 20260509150305 | 11 | 205 | 1.6 | 4.8 | 0.08 | 0.69 | 0.28 | 97 | 1008.9 |
| 20260509145804 | 11 | 250 | 1.6 | 8.0 | 0.08 | 0.69 | 0.28 | 97 | 1008.9 |
| 20260509145306 | 11 | 201 | 1.6 | 4.8 | 0.08 | 0.69 | 0.28 | 97 | 1008.9 |
| 20260509144804 | 11 | 246 | 1.6 | 3.2 | 0.05 | 0.66 | 0.25 | 97 | 1009.0 |
| 20260509144305 | 11 | 222 | 1.6 | 4.8 | 0.08 | 0.66 | 0.25 | 97 | 1008.9 |
| 20260509143807 | 11 | 266 | 1.6 | 4.8 | 0.03 | 0.61 | 0.20 | 97 | 1008.9 |
| 20260509143304 | 11 | 266 | 1.6 | 4.8 | 0.03 | 0.61 | 0.20 | 97 | 1009.0 |
| 20260509142804 | 10 | 235 | 0.0 | 4.8 | 0.05 | 0.61 | 0.20 | 97 | 1008.9 |
| 20260509142307 | 10 | 230 | 3.2 | 9.7 | 0.05 | 0.61 | 0.20 | 97 | 1008.9 |
| 20260509141804 | 10 | 277 | 1.6 | 11.3 | 0.05 | 0.61 | 0.20 | 97 | 1009.0 |
| 20260509141304 | 10 | 227 | 4.8 | 8.0 | 0.05 | 0.61 | 0.20 | 97 | 1009.0 |
| 20260509140805 | 10 | 248 | 1.6 | 9.7 | 0.08 | 0.61 | 0.20 | 97 | 1008.9 |
| 20260509140304 | 10 | 249 | 4.8 | 9.7 | 0.08 | 0.61 | 0.20 | 97 | 1009.0 |
| 20260509135306 | 10 | 222 | 3.2 | 9.7 | 0.08 | 0.61 | 0.20 | 97 | 1009.0 |
| 20260509134804 | 10 | 220 | 4.8 | 12.9 | 0.08 | 0.61 | 0.20 | 97 | 1009.1 |
| 20260509133804 | 10 | 230 | 3.2 | 9.7 | 0.08 | 0.58 | 0.18 | 97 | 1009.1 |
| 20260509133305 | 10 | 238 | 1.6 | 8.0 | 0.08 | 0.58 | 0.18 | 97 | 1009.1 |
| 20260509132805 | 10 | 222 | 3.2 | 11.3 | 0.05 | 0.56 | 0.15 | 97 | 1009.1 |
| 20260509131804 | 10 | 192 | 4.8 | 11.3 | 0.05 | 0.56 | 0.15 | 97 | 1009.1 |
| 20260509131307 | 10 | 203 | 1.6 | 4.8 | 0.05 | 0.56 | 0.15 | 97 | 1009.1 |
| 20260509130804 | 10 | 194 | 1.6 | 11.3 | 0.03 | 0.53 | 0.13 | 97 | 1009.1 |
| 20260509125308 | 10 | 219 | 3.2 | 4.8 | 0.03 | 0.53 | 0.13 | 97 | 1009.0 |
| 20260509124804 | 10 | 215 | 3.2 | 4.8 | 0.05 | 0.53 | 0.13 | 97 | 1009.1 |
| 20260509124304 | 10 | 207 | 1.6 | 4.8 | 0.05 | 0.53 | 0.13 | 97 | 1009.2 |
| 20260509123804 | 10 | 240 | 3.2 | 11.3 | 0.03 | 0.51 | 0.10 | 98 | 1009.2 |
| 20260509123304 | 10 | 252 | 1.6 | 9.7 | 0.03 | 0.51 | 0.10 | 98 | 1009.2 |
| 20260509122805 | 10 | 213 | 0.0 | 4.8 | 0.03 | 0.51 | 0.10 | 98 | 1009.3 |
| 20260509122306 | 10 | 236 | 1.6 | 4.8 | 0.03 | 0.51 | 0.10 | 98 | 1009.2 |
| 20260509121305 | 10 | 258 | 0.0 | 1.6 | 0.03 | 0.51 | 0.10 | 98 | 1009.2 |
| 20260509120804 | 9 | 231 | 1.6 | 3.2 | 0.03 | 0.51 | 0.10 | 98 | 1009.4 |
| 20260509120304 | 9 | 221 | 1.6 | 4.8 | 0.03 | 0.51 | 0.10 | 98 | 1009.2 |
| 20260509115804 | 9 | 224 | 0.0 | 4.8 | 0.03 | 0.51 | 0.10 | 98 | 1009.3 |
| 20260509115307 | 9 | 198 | 0.0 | 0.0 | 0.03 | 0.51 | 0.10 | 98 | 1009.3 |
| 20260509114805 | 9 | 185 | 0.0 | 1.6 | 0.00 | 0.48 | 0.08 | 98 | 1009.4 |
| 20260509113804 | 9 | 146 | 0.0 | 0.0 | 0.00 | 0.48 | 0.08 | 98 | 1009.4 |
| 20260509113304 | 8 | 146 | 0.0 | 0.0 | 0.00 | 0.48 | 0.08 | 98 | 1009.4 |
| 20260509112805 | 8 | 146 | 0.0 | 0.0 | 0.00 | 0.48 | 0.08 | 97 | 1009.4 |
| 20260509112307 | 8 | 146 | 0.0 | 0.0 | 0.00 | 0.48 | 0.08 | 98 | 1009.4 |
| 20260509111804 | 8 | 146 | 0.0 | 0.0 | 0.00 | 0.48 | 0.08 | 97 | 1009.4 |
| 20260509111304 | 8 | 146 | 0.0 | 0.0 | 0.00 | 0.48 | 0.08 | 97 | 1009.3 |
| 20260509110805 | 8 | 146 | 0.0 | 0.0 | 0.00 | 0.48 | 0.08 | 97 | 1009.3 |
| 20260509110305 | 8 | 146 | 0.0 | 0.0 | 0.00 | 0.48 | 0.08 | 97 | 1009.3 |
| 20260509105306 | 8 | 146 | 0.0 | 1.6 | 0.00 | 0.48 | 0.08 | 97 | 1009.2 |
| 20260509104805 | 8 | 146 | 0.0 | 0.0 | 0.00 | 0.48 | 0.08 | 97 | 1009.2 |
| 20260509104305 | 8 | 146 | 0.0 | 0.0 | 0.00 | 0.48 | 0.08 | 97 | 1009.2 |
| 20260509103804 | 8 | 146 | 0.0 | 0.0 | 0.00 | 0.48 | 0.08 | 97 | 1009.1 |
| 20260509103304 | 8 | 146 | 0.0 | 1.6 | 0.00 | 0.48 | 0.08 | 97 | 1009.1 |
| 20260509102805 | 8 | 146 | 0.0 | 0.0 | 0.00 | 0.48 | 0.08 | 97 | 1009.2 |
| 20260509102306 | 8 | 146 | 0.0 | 0.0 | 0.00 | 0.48 | 0.08 | 97 | 1009.1 |
| 20260509101805 | 8 | 146 | 0.0 | 0.0 | 0.00 | 0.48 | 0.08 | 97 | 1009.1 |
| 20260509101305 | 8 | 146 | 0.0 | 0.0 | 0.00 | 0.48 | 0.08 | 97 | 1009.1 |
| 20260509100804 | 8 | 146 | 0.0 | 1.6 | 0.00 | 0.48 | 0.08 | 97 | 1009.1 |
| 20260509100304 | 8 | 146 | 0.0 | 0.0 | 0.00 | 0.48 | 0.08 | 97 | 1009.2 |
| 20260509095804 | 8 | 146 | 0.0 | 0.0 | 0.00 | 0.48 | 0.08 | 97 | 1009.4 |
| 20260509095306 | 8 | 146 | 0.0 | 0.0 | 0.00 | 0.48 | 0.08 | 97 | 1009.6 |
| 20260509094804 | 8 | 146 | 0.0 | 0.0 | 0.03 | 0.48 | 0.08 | 97 | 1009.5 |
| 20260509094304 | 8 | 146 | 0.0 | 0.0 | 0.03 | 0.48 | 0.08 | 97 | 1009.5 |
| 20260509092804 | 8 | 173 | 0.0 | 0.0 | 0.03 | 0.48 | 0.08 | 97 | 1009.4 |
| 20260509092306 | 8 | 191 | 0.0 | 0.0 | 0.03 | 0.48 | 0.08 | 97 | 1009.6 |
| 20260509091804 | 8 | 191 | 0.0 | 0.0 | 0.03 | 0.48 | 0.08 | 97 | 1009.7 |
| 20260509091305 | 8 | 191 | 0.0 | 0.0 | 0.03 | 0.48 | 0.08 | 97 | 1009.6 |
| 20260509090805 | 8 | 191 | 0.0 | 0.0 | 0.05 | 0.48 | 0.08 | 97 | 1009.7 |
| 20260509090304 | 8 | 191 | 0.0 | 0.0 | 0.05 | 0.48 | 0.08 | 97 | 1009.8 |
| 20260509085806 | 8 | 191 | 0.0 | 0.0 | 0.05 | 0.48 | 0.08 | 97 | 1009.9 |
| 20260509084805 | 8 | 191 | 0.0 | 0.0 | 0.03 | 0.46 | 0.05 | 97 | 1010.0 |
| 20260509084305 | 8 | 191 | 0.0 | 0.0 | 0.03 | 0.46 | 0.05 | 97 | 1010.0 |
| 20260509083805 | 8 | 191 | 0.0 | 0.0 | 0.03 | 0.46 | 0.05 | 97 | 1010.0 |
| 20260509083305 | 8 | 191 | 0.0 | 0.0 | 0.03 | 0.46 | 0.05 | 97 | 1010.0 |
| 20260509082805 | 8 | 191 | 0.0 | 0.0 | 0.03 | 0.46 | 0.05 | 97 | 1010.1 |
| 20260509081805 | 8 | 191 | 0.0 | 0.0 | 0.05 | 0.46 | 0.05 | 97 | 1010.1 |
| 20260509081305 | 8 | 191 | 0.0 | 0.0 | 0.05 | 0.46 | 0.05 | 97 | 1010.1 |
| 20260509080805 | 8 | 191 | 0.0 | 0.0 | 0.03 | 0.43 | 0.03 | 97 | 1010.1 |
| 20260509080304 | 8 | 191 | 0.0 | 0.0 | 0.03 | 0.43 | 0.03 | 96 | 1010.3 |
| 20260509075804 | 8 | 120 | 0.0 | 1.6 | 0.03 | 0.43 | 0.03 | 96 | 1010.0 |
| 20260509075309 | 8 | 120 | 0.0 | 1.6 | 0.03 | 0.43 | 0.03 | 96 | 1009.9 |
| 20260509074304 | 8 | 120 | 0.0 | 1.6 | 0.03 | 0.43 | 0.03 | 96 | 1010.0 |
| 20260509073805 | 8 | 120 | 0.0 | 0.0 | 0.03 | 0.43 | 0.03 | 96 | 1010.2 |
| 20260509073304 | 8 | 120 | 0.0 | 1.6 | 0.03 | 0.43 | 0.03 | 96 | 1010.2 |
| 20260509072804 | 8 | 120 | 0.0 | 1.6 | 0.03 | 0.43 | 0.03 | 96 | 1010.2 |
| 20260509072306 | 8 | 120 | 0.0 | 4.8 | 0.03 | 0.43 | 0.03 | 96 | 1010.1 |
| 20260509071804 | 8 | 156 | 0.0 | 1.6 | 0.00 | 0.41 | 0.00 | 96 | 1010.1 |
| 20260509071304 | 8 | 125 | 0.0 | 1.6 | 0.00 | 0.41 | 0.00 | 96 | 1010.1 |
| 20260509070804 | 8 | 120 | 0.0 | 4.8 | 0.00 | 0.41 | 0.00 | 96 | 1010.0 |
| 20260509070305 | 8 | 128 | 0.0 | 3.2 | 0.00 | 0.41 | 0.00 | 96 | 1009.9 |
| 20260509065306 | 8 | 113 | 1.6 | 3.2 | 0.00 | 0.41 | 0.00 | 96 | 1010.0 |
| 20260509064804 | 8 | 117 | 0.0 | 1.6 | 0.00 | 0.41 | 0.00 | 96 | 1010.0 |
| 20260509064304 | 8 | 116 | 0.0 | 3.2 | 0.00 | 0.41 | 0.00 | 96 | 1010.1 |
| 20260509063804 | 8 | 130 | 0.0 | 4.8 | 0.00 | 0.41 | 0.00 | 96 | 1010.1 |
| 20260509063304 | 8 | 99 | 0.0 | 3.2 | 0.00 | 0.41 | 0.00 | 96 | 1010.2 |
| 20260509062806 | 8 | 118 | 1.6 | 4.8 | 0.00 | 0.41 | 0.00 | 96 | 1010.3 |
| 20260509062306 | 8 | 116 | 0.0 | 3.2 | 0.00 | 0.41 | 0.00 | 96 | 1010.3 |